Location: Haram ta Haram Freeway
(35.0583°N, 51.4202°E)
Time: 00:05:07
(UTC+04:30)

ISS - Pass Details

Date: 14 July 2022
Orbit: 412 x 420 km, 51.6° (Epoch: 17 August)

Event Time Altitude Azimuth Distance (km) Brightness Sun altitude
Rises 03:29:12 0° 326° (NW) 2,360 0.3 -24.3°
Reaches altitude 10° 03:31:55 10° 349° (N) 1,496 -0.4 -24.0°
Maximum altitude 03:34:02 16° 29° (NNE) 1,201 -0.5 -23.8°
Drops below altitude 10° 03:36:10 10° 68° (ENE) 1,496 -0.2 -23.5°
Sets 03:38:53 0° 92° (E) 2,359 0.6 -23.2°
